Regional Weather Roundup
Issued by NWS Northern Indiana

Home | Current Version | Previous Version | Text Only | Print | Product List | Glossary Off
Versions: 1 2 3 4 5 6 7 8 9 10 11 12 13 14 15 16 17 18 19 20 21 22 23 24 25 26 27 28 29 30 31 32 33 34 35 36 37 38 39 40 41 42 43 44 45 46 47 48 49 50

000
ASUS43 KIWX 221810
RWRIWX

KIWX WEATHER ROUNDUP
NATIONAL WEATHER SERVICE NORTHERN INDIANA
100 PM EST SUN JAN 22 2017

NOTE: "FAIR" INDICATES FEW OR NO CLOUDS BELOW 12,000 FEET WITH NO
SIGNIFICANT WEATHER AND/OR OBSTRUCTIONS TO VISIBILITY.

* THESE STATIONS ARE NOT UNDER NWS QUALITY CONTROL. THEY ALSO MAY NOT
  REPORT WEATHER SUCH AS PRECIPITATION OR FOG.

INZ001>027-221900-
NORTHERN INDIANA

CITY           SKY/WX    TMP DP  RH WIND       PRES   REMARKS
GARY*          FOG       41  41 100 NE7       29.63F VSB 1/4
VALPARAISO     CLOUDY    45  44  97 N8        29.60F FOG
6HR MIN TEMP:  37; 6HR MAX TEMP:  45;

LAPORTE*       CLOUDY    43  43 100 N9        29.60F FOG
6HR MIN TEMP:  35; 6HR MAX TEMP:  43;

KNOX*          CLOUDY    41  34  75 N6        29.59F VSB 1/2
SOUTH BEND     FOG       41  41 100 N7        29.61F VSB 1/4
6HR MIN TEMP:  35; 6HR MAX TEMP:  41;

ELKHART*       CLOUDY    43  43 100 CALM      29.60F FOG
GOSHEN         FOG       48  46  93 N6        29.59F VSB 1/4
6HR MIN TEMP:  37; 6HR MAX TEMP:  48;

ROCHESTER*     MOSUNNY   50  50 100 N7        29.57F
WARSAW*        PTSUNNY   48  48 100 CALM      29.58F
FORT WAYNE     CLOUDY    60  50  69 CALM      29.57F
6HR MIN TEMP:  45; 6HR MAX TEMP:  60;

PERU/GRISSOM   MOSUNNY   57  52  84 CALM      29.54F
6HR MIN TEMP:  43; 6HR MAX TEMP:  57;

MARION*        SUNNY     61  52  72 E5        29.55F

$$
INZ028>050-221900-
CENTRAL INDIANA

CITY           SKY/WX    TMP DP  RH WIND       PRES   REMARKS
LAFAYETTE      CLOUDY    51  48  89 N6        29.55F
6HR MIN TEMP:  36; 6HR MAX TEMP:  53;

KOKOMO*        MOSUNNY   58  52  80 CALM      29.56F
6HR MIN TEMP:  43; 6HR MAX TEMP:  58;

MUNCIE*        MOSUNNY   62  52  69 E7        29.53F
6HR MIN TEMP:  49; 6HR MAX TEMP:  62;

INDIANAPOLIS   CLOUDY    58  51  78 NE7       29.51F
6HR MIN TEMP:  48; 6HR MAX TEMP:  58;


$$
MIZ043>046-050>051-056>058-064>065-071>073-077>080-221900-
SOUTHWEST LOWER MICHIGAN

CITY           SKY/WX    TMP DP  RH WIND       PRES   REMARKS
BATTLE CREEK   FOG       44  44 100 NE3       29.61F VSB 3/4
6HR MIN TEMP:  40; 6HR MAX TEMP:  44;

BENTON HARBOR  FOG       42  40  92 N3        29.62F VSB 1/2
6HR MIN TEMP:  40; 6HR MAX TEMP:  43;

COLDWATER*     CLOUDY    49  49 100 CALM      29.59F FOG
6HR MIN TEMP:  38; 6HR MAX TEMP:  50;

HILLSDALE*     PTSUNNY   54  48  82 N6        29.58F
HOLLAND        CLOUDY    45  42  89 NE7       29.63F
6HR MIN TEMP:  41; 6HR MAX TEMP:  45;

GRAND RAPIDS   FOG       39  38  96 NE6       29.64F VSB 1/4
6HR MIN TEMP:  34; 6HR MAX TEMP:  39;

KALAMAZOO      FOG       40  38  93 N10       29.62F VSB 1
6HR MIN TEMP:  38; 6HR MAX TEMP:  41;

STURGIS*       CLOUDY    48  48 100 N6        29.59F FOG
6HR MIN TEMP:  42; 6HR MAX TEMP:  48;

THREE RIVERS*  FOG       42  42 100 N3        29.61F VSB 1/4
6HR MIN TEMP:  40; 6HR MAX TEMP:  44;


$$
OHZ001>008-015>018-024>025-221900-
NORTHWEST OHIO

CITY           SKY/WX    TMP DP  RH WIND       PRES   REMARKS
DEFIANCE       MOSUNNY   58  49  72 CALM      29.58F
6HR MIN TEMP:  41; 6HR MAX TEMP:  58;

FINDLAY        SUNNY     63  50  62 SE7       29.56F
6HR MIN TEMP:  46; 6HR MAX TEMP:  63; 6HR PCP: TRACE;

TOLEDO EXPRESS SUNNY     58  51  78 NE5       29.57F
6HR MIN TEMP:  43; 6HR MAX TEMP:  58; 6HR PCP:  0.04;

TOLEDO METCALF SUNNY     56  51  84 NE7       29.59F
6HR MIN TEMP:  44; 6HR MAX TEMP:  58; 6HR PCP:  0.01;

LIMA           MOSUNNY   63  52  67 SE6       29.55F
6HR MIN TEMP:  43; 6HR MAX TEMP:  64;


$$
AND FOR LAKE MICHIGAN COASTAL AND OPEN LAKE BUOY OBSERVATIONS

STATION/POSITION TEMP    WIND        PRES    VSBY  WAVE
                 AIR SEA DIR/SP/G                  HT/PER
                 (F)     (DEG/KT/KT) (MB)    (MI)  (FT/S)
CALUMET HARBOR    39     340/  6/  8 1003.0F
MICHIGAN CITY     35      10/  5/  6   N/A
BURNS HARBOR      35      40/  6/  8 1004.1F
SAINT JOSEPH      42      20/  6/  7 1003.4

$$
&&



USA.gov is the U.S. government's official web portal to all federal, state and local government web resources and services.